LexMAWeather

Lexington, Massachusetts, USA

73°F
5/19/2019 4:47pm 
  • Lexington Conditions: Clear
  • Temperature: 73.4°F / 23.0°CWarmer 1.1°F than last hour.
  • Dew Point: 61.3°FIncreased 1.8°Fsince last hour.
  • Relative Humidity: 66%Increased 2.0% since last hour.
  • Wind: NW 2 mph, 10-min avg: 3 mph, gust: 12 mph
  • Barometer: 29.91 inFalling 0.02  inHg/hr Falling Slowly
  • Visibility: 10 miles
  • Rain Today: 0.33 in
  •   

Regional Weather Roundup
for Boston, MA

        
000
ASUS41 KBOX 192010
RWRBOX

REGIONAL WEATHER ROUNDUP
NATIONAL WEATHER SERVICE BOSTON/NORTON MA
400 PM EDT SUN MAY 19 2019

NOTE:  "FAIR" INDICATES FEW OR NO CLOUDS BELOW 12,000 FEET WITH NO 
SIGNIFICANT WEATHER AND/OR OBSTRUCTIONS TO VISIBILITY.

MAZALL-192100-
EASTERN MASSACHUSETTS
  
CITY           SKY/WX    TMP DP  RH WIND       PRES   REMARKS
BOSTON         FAIR      73  56  54 S18G28    29.98F                  
BEVERLY        FAIR      71  54  54 S13       29.97F                  
LAWRENCE       FAIR      71  55  56 SW9       29.98F                  
BEDFORD        FAIR      76  56  49 SW16G23   29.96F                  
BLUE HILL        N/A     68  54  60 S22G32    29.99F                  
NORWOOD        FAIR      73  54  51 S16G25    30.00F                  
MARSHFIELD     FAIR      70  52  52 SW20G33   30.00F                  
PLYMOUTH       FAIR      66  51  58 S12G26    30.05F                  
TAUNTON        PTSUNNY   68  52  56 S14G28    30.05F                  
NEW BEDFORD    PTSUNNY   64  53  67 S22G31    30.06F                  
$$

MAZALL-192100-
CAPE COD AND THE ISLANDS
  
CITY           SKY/WX    TMP DP  RH WIND       PRES   REMARKS
FALMOUTH       PTSUNNY   66  50  55 S23G35    30.06F                  
HYANNIS        FAIR      61  51  70 S18G29    30.05F                  
CHATHAM        FAIR      61  52  72 S9G22     30.07F                  
PROVINCETOWN   FAIR      60  52  74 S18G25    30.04F                  
NANTUCKET      FAIR      58  50  75 S15       30.10F                  
MARTHAS VNYRD  FAIR      62  51  67 S20G29    30.08F                  
$$
 
MAZALL-192100-
CENTRAL AND WESTERN MASSACHUSETTS
  
CITY           SKY/WX    TMP DP  RH WIND       PRES   REMARKS
WORCESTER      FAIR      73  57  57 S17G29    29.99F                  
FITCHBURG      FAIR      77  58  51 S9G20     29.96F                  
ORANGE         FAIR      77  58  51 S15G24    29.96F                  
SPRINGFIELD    MOSUNNY   79  60  51 S22G31    29.94F                  
WESTFIELD      FAIR      78  59  51 S18G26    29.93F                  
NORTH ADAMS    FAIR      83  64  52 S9        29.88F                  
PITTSFIELD     FAIR      82  61  48 S14G25    29.90F                  
$$
 
RIZALL-192100-
RHODE ISLAND
  
CITY           SKY/WX    TMP DP  RH WIND       PRES   REMARKS
PROVIDENCE     CLOUDY    66  55  67 SW22G28   30.05F                  
NEWPORT        CLOUDY    60  53  77 S13       30.07F                  
BLOCK ISLAND   FAIR      62  54  74 S17G25    30.07F                  
SMITHFIELD     CLOUDY    68  57  68 VRB5G18   30.04S                  
WESTERLY       CLOUDY    64  55  72 SW10      30.07F                  
$$
 
CTZALL-192100-
CONNECTICUT
  
CITY           SKY/WX    TMP DP  RH WIND       PRES   REMARKS
BRADLEY INTL   FAIR      79  60  52 S18G30    29.96F                  
HARTFORD       FAIR      76  61  59 S16G25    29.98F                  
BRIDGEPORT     CLOUDY    71  62  73 S13G21    30.01F                  
DANBURY        MOSUNNY   75  63  66 S12G21    29.98F                  
GROTON         CLOUDY    63  53  70 S12       30.05F                  
NEW HAVEN      CLOUDY    72  61  68 S10       30.01F                  
CHESTER        CLOUDY    73  59  60 S13       30.04F                  
MERIDEN        CLOUDY    73  60  63 S12G22    30.00F                  
WILLIMANTIC    FAIR      73  58  59 SW16G26   30.01F                  
OXFORD         PTSUNNY   72  64  76 S16G25    30.01F                  
$$

MEZ002-015-021-024-NHZ003-005-008-011-012-014-VTZ005-008-192100-
NORTHERN NEW ENGLAND
  
CITY           SKY/WX    TMP DP  RH WIND       PRES   REMARKS
PORTLAND ME    CLOUDY    60  49  66 S13G20    29.98F                  
BANGOR ME      CLOUDY    51  49  92 SE8       30.04F                  
CONCORD NH     FAIR      73  56  54 S13       29.94F                  
MANCHESTER NH  FAIR      73  55  53 S14       29.94F                  
NASHUA NH      FAIR      73  58  59 VRB6      29.96F                  
PORTSMOUTH NH  PTSUNNY   71  54  55 SW10      29.95F                  
JAFFREY NH     FAIR      75  57  53 SW13G21   29.97F                  
KEENE NH       FAIR      76  60  57 S12       29.93F                  
BURLINGTON VT  PTSUNNY   76  55  48 NW7       29.82F                  
MT. WASHINGTON FOG       48  48 100 W36G55      N/A  VSB 0            
$$

NYZ052-076-192100-
EASTERN NEW YORK
  
CITY           SKY/WX    TMP DP  RH WIND       PRES   REMARKS
ALBANY         FAIR      85  63  47 S14G21    29.84F                  
NEW YORK CITY  FAIR      74  63  68 S15G24    29.96F                  
$$
 
ANZALL-192100-
MARINE OBSERVATIONS
  
STATION/POSITION TIME  TEMP    WIND        PRES    VSBY  WAVE
                       AIR SEA DIR/SP/G                  HT/PER
                 (UTC) (F)     (DEG/KT/KT) (MB)    (MI)  (FT/S)
BOSTON BUOY      1950   58 50  170/ 12/ 14 1015.3F         3/ 5
BUZZARDS BAY     NOT AVBL
NANTUCKET SOUND  1950      53  190/ 19/ 21 1018.4F         2/ 4
MASS BAY-STELLWA NOT AVBL
ISLE OF SHOALS   1900   57     180/ 20/ 21 1015.5F
S OF BLOCK IS    1930      51                N/A           3/ 4
$$

......................KEY.........................
  SKY/WX - SKY CONDITION/PRESENT WEATHER
  TMP    - TEMPERATURE IN FAHRENHEIT
  DWPT   - DEWPOINT IN FAHRENHEIT
  RH     - RELATIVE HUMIDITY IN PERCENT
  WIND   - DIRECTION AND SPEED IN MPH
  PRES   - MEAN SEA LEVEL PRESSURE IN INCHES OF HG
  WCI    - WIND CHILL INDEX
  VSB    - VISIBILITY IN MILES
  HX     - HEAT INDEX
  TC     - TEMPERATURE IN CELSIUS
  VRB    - VARIABLE WIND DIRECTION
  N/A    - NOT AVAILABLE